Wetbulb
77.44 77.02 76.86 73.83 64.36 62.72 58.13 59.15 63.68 61.87 60.99 63.98 63.69 62.40 61.76 63.42 61.53 59.15 71.74 71.55 71.67 73.65 75.27 75.57 76.56 76.68 77.51 78.18 78.48 77.98 77.48 77.02 77.14 76.81 76.73 76.62 76.51 76.48 76.87 76.73 76.29 76.68 76.43 76.15 76.32 76.27 76.52 76.16 75.74
77.00 76.11 75.16 70.75 60.57 56.10 57.11 62.08 60.14 62.95 64.84 66.21 65.47 63.57 61.43 60.34 65.45 65.10 68.57 71.30 73.69 74.69 75.00 75.66 76.25 76.98 77.04 77.25 77.80 77.56 77.01 76.82 77.09 77.28 76.98 76.89 76.70 76.54 76.71 76.54 76.24 76.35 76.46 76.49 76.27 76.49 76.63 76.35 75.38
75.34 74.98 70.12 65.90 59.97 56.10 57.05 61.66 63.60 63.85 64.74 64.48 60.92 64.09 62.75 61.38 65.22 67.73 71.69 73.10 74.22 74.06 75.10 76.18 76.41 76.96 76.78 76.56 77.38 77.25 77.34 76.74 76.76 76.79 76.70 76.59 76.87 76.74 76.35 76.07 75.91 76.04 76.10 76.46 76.04 76.24 76.10 76.21 76.13
74.76 74.22 71.55 61.48 57.73 59.96 60.68 62.77 64.55 64.09 64.89 64.36 62.47 59.75 64.05 66.87 65.92 69.54 73.70 74.18 74.02 74.73 75.30 75.98 76.81 76.43 76.76 76.98 77.09 77.12 76.90 76.79 76.65 76.71 76.65 76.87 76.96 76.13 76.27 76.13 76.29 75.69 76.12 75.96 75.77 76.13 76.24 76.05 76.16
75.50 71.36 62.83 59.93 59.48 61.24 63.28 63.84 64.48 62.96 63.51 64.28 64.09 60.69 61.66 65.96 68.98 70.37 72.29 73.21 73.60 74.20 74.99 76.28 77.06 76.94 76.74 76.74 76.87 76.90 76.74 76.81 76.70 76.59 76.49 76.38 76.74 76.49 75.99 76.49 76.71 75.93 76.55 76.27 76.41 76.32 76.13 75.32 75.06
70.10 71.04 60.29 57.83 59.69 61.98 63.62 64.70 64.06 62.96 64.41 64.11 61.54 61.35 61.88 67.45 67.76 69.70 71.64 73.19 74.08 73.43 74.16 75.36 77.05 77.41 77.19 77.17 77.31 76.98 76.81 76.59 76.48 76.90 76.41 76.57 76.59 76.71 76.07 76.13 76.46 76.82 76.37 76.63 76.52 76.27 75.96 75.57 75.44
69.18 66.22 60.69 60.64 60.54 61.39 62.69 65.53 63.18 62.98 63.23 63.92 66.85 62.67 65.37 66.14 68.40 70.42 71.20 72.31 73.53 74.22 74.62 75.08 75.78 77.37 77.36 76.87 77.03 76.97 77.02 77.06 76.65 76.51 76.40 76.65 76.52 76.67 76.18 76.55 76.57 76.66 76.79 76.46 76.32 75.91 75.60 75.13 74.57
71.90 68.08 61.13 61.75 60.50 60.48 64.63 64.98 65.13 63.79 63.02 68.25 68.02 63.05 62.32 65.11 68.89 70.25 70.84 71.81 72.82 73.40 73.81 74.93 76.20 77.33 76.64 77.34 76.90 76.82 76.82 76.63 76.46 76.39 76.58 76.46 76.54 76.29 76.57 76.70 76.71 76.69 76.80 76.35 76.24 75.85 75.41 75.05 74.46
72.97 65.68 60.53 61.10 61.51 63.00 65.76 64.01 65.43 66.63 65.16 65.91 66.80 67.86 67.36 66.74 67.74 68.54 68.59 70.43 71.31 72.64 74.11 75.58 75.64 76.94 76.93 76.17 77.01 77.22 77.04 76.63 76.79 76.80 76.54 76.88 78.12 77.06 77.18 76.70 76.85 76.82 76.49 76.71 75.77 75.85 75.66 75.24 75.30
69.38 64.15 62.42 65.39 65.38 64.92 65.68 65.01 64.21 64.24 64.05 63.94 66.24 68.71 68.13 67.69 67.54 67.38 68.03 69.57 71.12 72.21 73.56 75.06 75.30 75.88 76.14 75.86 77.44 77.82 77.01 76.47 76.70 76.75 77.47 78.28 77.47 77.53 76.94 76.50 76.70 76.21 76.71 76.63 76.38 75.93 75.32 75.44 75.82
66.75 63.69 65.52 65.74 66.49 67.25 66.10 65.10 65.33 64.22 62.81 64.59 65.18 66.60 67.65 68.12 68.33 68.43 69.16 70.26 71.42 72.71 74.07 74.84 75.71 76.03 75.41 75.27 76.13 76.93 77.08 76.98 77.31 77.75 77.74 77.52 76.76 76.53 75.90 76.59 76.51 77.04 77.21 76.39 76.59 76.02 75.54 75.00 76.03
63.98 65.83 66.72 66.57 67.08 67.02 65.82 66.79 64.30 65.28 65.56 66.77 67.88 68.32 68.19 67.90 68.32 68.71 69.58 70.78 72.10 72.75 73.88 74.93 75.90 76.57 76.35 76.59 75.48 76.01 75.71 76.23 75.97 76.15 77.10 77.41 76.12 76.36 77.36 76.11 75.48 76.56 77.95 76.36 76.35 75.42 75.71 75.34 75.46
64.24 65.30 66.39 66.68 67.17 67.25 67.96 65.74 65.24 64.90 67.13 67.54 68.24 68.26 68.14 68.66 69.15 70.55 71.23 72.03 73.10 72.81 73.82 74.78 75.63 76.38 76.06 75.90 75.39 75.43 75.80 75.25 75.77 76.24 76.52 76.88 76.21 77.75 76.32 77.41 78.56 77.68 75.85 75.74 74.97 74.34 74.71 74.71 75.38
65.58 66.06 65.97 65.82 65.98 67.06 66.04 66.30 66.67 66.34 67.94 66.66 67.36 67.70 68.37 68.77 69.45 70.43 70.70 71.33 72.00 72.76 73.12 74.18 74.98 76.04 75.91 76.45 76.64 75.51 76.21 76.21 76.14 76.46 76.79 77.51 77.57 77.39 78.61 77.96 77.97 76.51 75.87 75.13 74.85 74.19 73.19 72.74 72.60
65.90 63.02 63.01 64.45 65.70 65.53 67.21 63.91 64.89 68.39 68.09 66.32 66.58 67.74 68.46 68.95 69.74 69.49 70.16 70.21 71.98 72.89 72.84 73.28 74.19 75.19 75.40 76.37 76.34 75.61 75.51 76.12 76.07 76.45 77.57 78.33 78.92 75.35 77.46 79.09 78.18 77.83 75.54 76.08 75.77 75.60 74.80 73.05 73.97
61.25 62.04 57.52 62.39 65.34 66.27 65.12 61.34 66.32 68.59 67.43 66.19 66.49 67.16 67.70 68.59 68.85 69.39 70.14 71.57 73.03 73.21 73.34 73.90 73.22 73.57 75.27 75.62 76.36 75.80 75.75 75.94 76.08 76.64 77.38 77.84 78.69 78.78 77.82 78.74 78.26 77.69 75.53 74.84 74.79 74.34 76.21 75.21 75.10
59.43 55.59 55.68 57.45 63.47 63.97 64.38 61.22 65.53 68.29 67.94 67.12 67.21 67.33 67.14 68.01 68.81 69.32 70.90 71.90 72.42 73.70 74.14 73.69 73.70 72.90 74.01 75.62 76.38 76.79 77.45 77.07 76.89 77.12 77.39 78.40 78.48 78.52 77.67 78.16 78.31 78.25 76.57 77.39 76.58 75.51 75.44 74.56 74.74
55.14 55.86 56.55 55.47 57.11 61.76 61.56 61.64 65.68 67.15 67.40 67.66 67.89 67.81 67.52 67.66 68.37 69.58 71.03 72.14 73.02 73.72 74.55 74.38 73.86 74.51 75.41 75.56 76.61 76.37 77.10 77.56 77.67 77.19 77.35 78.69 79.20 78.18 78.33 78.17 78.30 77.05 75.97 75.59 75.52 75.88 75.41 74.94 75.10
57.58 57.33 56.43 56.26 58.51 58.42 60.17 61.32 62.88 66.83 66.70 67.15 67.65 67.69 67.76 68.00 69.97 70.31 70.87 72.06 73.03 73.75 74.32 75.00 75.26 75.83 75.69 75.17 75.24 75.22 75.25 76.06 76.64 77.18 78.21 78.63 78.11 78.51 78.09 79.58 76.70 76.95 76.01 75.91 76.32 75.35 74.97 74.95 76.19
56.77 56.52 57.10 56.23 57.32 60.20 60.15 60.13 61.83 65.02 66.30 67.13 67.51 67.70 68.06 68.57 69.26 69.54 69.91 71.17 71.82 72.99 74.05 74.98 75.51 76.33 76.61 76.06 76.04 76.02 76.16 76.42 76.84 78.85 77.82 78.37 78.36 78.16 78.08 77.54 76.49 76.77 75.53 76.43 76.37 76.10 74.34 75.03 75.90
56.40 56.56 56.34 54.65 54.97 58.99 58.47 57.66 60.55 64.36 66.20 67.19 67.96 68.78 69.04 68.85 68.72 68.97 69.27 70.07 71.44 72.51 73.73 74.47 75.62 76.23 76.96 77.15 76.44 76.81 77.09 77.16 76.43 76.50 75.37 77.94 78.19 77.79 77.56 78.23 77.39 76.75 76.43 75.48 76.67 76.58 76.15 73.23 75.15
52.39 57.27 55.77 55.06 53.26 51.37 57.17 50.47 57.19 61.54 62.83 65.28 66.64 67.70 68.46 69.24 69.84 69.53 69.52 69.71 70.59 72.16 74.15 74.89 75.75 76.18 77.03 77.72 77.79 77.60 74.85 74.21 75.08 77.83 75.96 76.56 77.77 78.01 78.29 78.47 77.82 77.73 76.39 76.65 76.59 77.09 77.11 76.16 73.35
52.39 55.73 55.26 55.27 54.24 53.05 55.92 52.61 56.46 58.16 57.63 59.33 63.65 66.96 68.50 69.66 69.81 69.67 69.76 70.38 71.16 72.28 73.49 74.69 75.71 76.43 77.00 77.03 78.12 76.02 75.79 75.23 76.05 76.27 77.36 77.21 77.17 78.12 78.42 78.56 78.27 77.64 76.77 77.33 77.49 77.41 77.12 76.44 74.54
54.43 53.14 53.97 54.62 53.92 49.20 52.56 51.72 52.63 54.98 56.88 58.27 61.75 65.02 68.12 69.27 70.18 70.44 70.92 71.16 71.40 72.45 73.27 74.39 75.05 75.94 76.94 76.87 76.73 77.00 76.59 76.14 75.47 76.07 76.80 75.28 75.83 77.14 78.18 78.57 78.22 78.12 78.36 78.58 78.04 77.67 77.49 76.74 75.92
54.27 52.17 47.83 47.48 48.47 48.35 52.52 50.68 52.78 56.23 58.43 61.00 61.66 64.13 67.94 69.57 70.21 70.38 70.43 70.58 71.68 72.06 72.76 73.55 74.67 75.64 76.46 76.55 76.49 76.66 76.91 77.07 76.76 76.91 75.52 75.92 74.89 75.02 76.48 78.06 77.91 77.44 78.21 78.14 78.40 77.62 77.04 77.05 75.78
52.74 52.41 48.21 44.55 45.50 47.83 51.91 48.60 53.51 56.78 61.79 64.70 64.07 67.54 67.42 69.34 70.27 70.75 71.14 71.29 71.55 72.31 72.97 73.67 74.60 75.64 75.94 76.31 76.58 77.34 77.49 76.39 76.34 77.00 76.01 75.71 75.56 75.79 77.30 77.92 77.75 77.83 78.11 78.20 78.10 76.97 76.57 76.96 75.98
53.53 51.08 52.58 49.08 49.94 47.44 49.44 51.49 54.94 58.21 62.45 64.97 66.32 67.59 67.37 69.02 69.88 70.51 71.50 71.81 72.41 72.65 73.26 73.80 75.80 76.07 76.49 75.98 76.64 76.84 77.14 77.10 76.80 78.50 77.57 76.53 76.88 76.37 77.53 77.96 77.70 77.94 78.24 78.13 77.80 76.33 76.53 76.04 75.81
54.44 54.25 49.48 49.82 44.97 44.08 47.57 49.07 50.94 57.70 61.50 65.29 66.46 67.15 68.06 69.17 70.14 70.82 71.61 72.36 72.93 73.20 73.75 74.21 75.04 75.45 76.14 75.97 76.31 76.37 76.71 77.35 77.45 77.60 77.41 77.57 77.53 77.89 77.75 78.03 77.64 77.44 77.89 77.89 77.72 76.40 76.71 75.74 74.29
52.56 52.60 52.94 51.21 49.77 45.76 45.24 49.64 57.85 60.08 63.29 65.63 66.80 67.94 68.55 69.26 70.07 70.91 71.65 72.65 73.19 73.28 73.73 73.90 74.65 75.13 75.44 75.82 76.18 76.46 76.38 76.93 77.41 77.00 77.56 77.85 78.20 78.29 77.99 78.41 78.09 77.78 77.15 77.33 77.10 76.74 76.25 75.18 74.41
53.50 52.30 53.35 49.71 49.34 50.20 49.06 49.18 61.22 63.02 64.95 66.90 67.72 68.96 68.95 70.78 70.40 70.28 71.66 72.15 72.41 72.74 73.71 74.04 74.42 74.63 75.21 75.75 76.09 76.05 76.66 77.02 76.78 77.06 77.03 77.95 77.88 78.89 78.44 78.53 78.22 77.93 77.59 77.09 76.49 75.74 75.39 74.73 73.87
MSLP
1010.19 1009.98 1009.70 1009.30 1008.33 1005.93 1006.13 1007.07 1007.46 1008.59 1009.70 1010.87 1011.93 1012.42 1012.66 1012.71 1012.48 1013.61 1013.93 1015.03 1015.33 1015.06 1014.98 1015.65 1015.99 1016.10 1016.20 1016.46 1016.58 1016.82 1017.02 1017.19 1017.32 1017.56 1017.67 1017.89 1018.03 1018.07 1018.17 1018.12 1018.12 1018.07 1018.12 1018.10 1018.38 1018.51 1018.47 1018.49 1018.59
1009.36 1009.61 1009.71 1008.12 1006.20 1005.05 1006.10 1006.81 1007.73 1008.85 1010.02 1011.17 1012.24 1012.98 1013.43 1013.69 1013.96 1014.56 1014.58 1015.12 1015.06 1014.51 1014.82 1015.51 1016.33 1016.33 1016.38 1016.76 1016.86 1017.03 1017.24 1017.43 1017.64 1017.84 1017.87 1017.95 1018.14 1018.30 1018.35 1018.42 1018.40 1018.36 1018.35 1018.34 1018.45 1018.60 1018.72 1018.81 1018.95
1009.74 1009.92 1008.84 1006.49 1005.34 1005.38 1005.98 1006.81 1007.68 1009.58 1010.33 1011.26 1012.88 1013.67 1014.18 1014.76 1014.91 1014.47 1014.25 1014.61 1014.45 1014.90 1015.09 1015.75 1016.53 1016.62 1016.75 1016.97 1017.17 1017.30 1017.49 1017.66 1017.87 1017.97 1018.04 1018.15 1018.16 1018.37 1018.50 1018.60 1018.61 1018.64 1018.62 1018.61 1018.63 1018.81 1019.00 1019.05 1019.15
1009.61 1009.24 1007.58 1005.42 1005.32 1005.95 1006.03 1006.77 1007.70 1008.60 1010.03 1011.50 1012.73 1013.82 1014.87 1015.29 1015.29 1014.91 1014.52 1014.34 1014.51 1015.00 1014.87 1016.43 1016.72 1016.91 1017.01 1017.14 1017.36 1017.53 1017.75 1017.93 1018.05 1018.05 1018.13 1018.22 1018.28 1018.41 1018.56 1018.68 1018.74 1018.83 1018.83 1018.86 1018.89 1018.95 1019.14 1019.34 1019.44
1008.67 1007.79 1005.05 1005.02 1005.46 1005.85 1006.21 1006.79 1007.34 1008.06 1009.18 1010.57 1011.80 1013.43 1014.68 1015.55 1015.44 1015.44 1015.31 1014.84 1014.31 1014.36 1014.85 1016.14 1016.88 1017.05 1017.23 1017.37 1017.47 1017.67 1017.87 1018.12 1018.23 1018.26 1018.37 1018.40 1018.42 1018.49 1018.62 1018.73 1018.82 1018.99 1019.02 1019.03 1019.07 1019.17 1019.28 1019.45 1019.59
1007.66 1006.39 1004.07 1004.28 1005.25 1005.91 1006.27 1006.65 1007.09 1007.70 1008.69 1010.40 1011.81 1012.62 1014.22 1015.22 1015.40 1015.52 1015.40 1014.49 1014.36 1014.46 1014.72 1015.76 1016.84 1017.10 1017.34 1017.42 1017.55 1017.72 1017.91 1018.18 1018.36 1018.32 1018.47 1018.54 1018.54 1018.61 1018.77 1018.78 1018.94 1019.01 1019.21 1019.19 1019.28 1019.40 1019.49 1019.50 1019.61
1006.53 1004.78 1004.21 1004.06 1004.81 1005.43 1006.13 1006.55 1006.59 1007.32 1008.20 1008.95 1010.16 1011.31 1013.18 1014.53 1015.20 1015.53 1015.57 1015.29 1014.56 1014.40 1014.55 1015.48 1016.17 1017.00 1017.43 1017.38 1017.56 1017.73 1017.92 1018.04 1018.29 1018.38 1018.50 1018.54 1018.59 1018.71 1018.82 1018.84 1019.02 1019.04 1019.25 1019.38 1019.47 1019.61 1019.70 1019.72 1019.69
1006.28 1004.58 1003.42 1003.71 1004.10 1005.10 1005.89 1006.25 1006.75 1006.98 1007.87 1008.75 1009.37 1010.15 1011.99 1013.73 1014.82 1015.35 1015.65 1015.42 1015.07 1015.07 1015.69 1015.22 1015.72 1016.85 1016.70 1017.03 1017.58 1017.80 1018.00 1018.05 1018.24 1018.39 1018.52 1018.59 1018.59 1018.64 1018.78 1018.85 1018.96 1019.10 1019.17 1019.42 1019.58 1019.74 1019.82 1019.84 1019.87
1005.95 1003.47 1002.97 1003.49 1003.50 1004.80 1005.76 1005.99 1006.84 1007.35 1007.90 1008.44 1008.79 1009.03 1011.02 1013.41 1014.30 1014.93 1015.39 1015.27 1015.67 1015.70 1015.15 1014.66 1015.39 1016.24 1016.04 1016.90 1017.34 1017.75 1017.90 1018.03 1018.12 1018.25 1018.47 1018.50 1018.05 1018.19 1018.50 1018.55 1018.83 1019.09 1019.23 1019.41 1019.60 1019.80 1019.90 1019.88 1019.88
1004.47 1002.90 1003.30 1003.56 1003.66 1004.26 1005.36 1005.58 1006.40 1007.05 1007.48 1008.09 1008.49 1009.54 1011.54 1013.18 1013.77 1014.00 1014.14 1014.19 1014.52 1014.70 1014.66 1014.68 1014.78 1015.25 1015.84 1015.97 1016.78 1017.12 1017.13 1017.15 1017.39 1017.53 1017.87 1018.33 1018.20 1018.22 1017.76 1018.44 1018.92 1019.07 1019.20 1019.40 1019.65 1019.84 1019.83 1019.60 1018.44
1003.78 1003.27 1003.52 1003.71 1003.77 1004.19 1004.85 1005.39 1005.95 1006.15 1006.56 1007.21 1007.97 1009.51 1011.40 1012.40 1012.97 1013.10 1013.15 1013.42 1013.78 1014.32 1014.48 1014.51 1015.19 1015.92 1016.48 1016.25 1016.52 1016.45 1016.60 1016.63 1017.23 1017.71 1017.98 1018.05 1017.76 1017.69 1017.62 1017.88 1018.39 1018.48 1019.20 1019.00 1019.10 1019.43 1019.44 1018.96 1018.89
1003.39 1003.46 1003.47 1003.67 1003.97 1004.18 1004.60 1005.02 1005.35 1005.46 1005.53 1006.59 1007.77 1009.09 1010.41 1011.43 1011.94 1012.16 1012.49 1013.21 1013.20 1013.86 1014.31 1014.60 1015.21 1016.09 1015.96 1016.32 1016.75 1016.38 1016.44 1016.71 1016.63 1016.98 1017.71 1017.80 1017.66 1017.62 1017.54 1017.39 1018.10 1018.35 1018.50 1018.75 1018.55 1018.72 1018.92 1018.84 1019.20
1002.85 1003.03 1003.18 1003.53 1003.86 1003.95 1004.34 1004.64 1004.89 1005.26 1005.56 1006.45 1007.44 1008.84 1009.63 1010.32 1010.99 1011.46 1011.86 1012.43 1012.97 1013.57 1014.13 1014.66 1015.28 1016.01 1016.37 1017.11 1016.93 1016.58 1016.55 1016.73 1016.56 1017.00 1017.42 1017.39 1017.17 1017.75 1017.74 1017.65 1018.15 1018.25 1017.82 1018.09 1018.47 1018.53 1018.95 1018.96 1018.83
1002.88 1002.88 1002.80 1003.09 1003.43 1003.69 1004.02 1004.28 1004.74 1005.10 1005.61 1006.31 1007.09 1007.91 1008.82 1009.36 1009.89 1010.64 1011.17 1011.72 1012.43 1013.05 1013.46 1014.23 1015.06 1015.99 1016.31 1016.28 1016.52 1016.45 1016.48 1016.47 1016.67 1016.65 1016.88 1017.61 1017.32 1017.59 1017.62 1017.92 1018.20 1018.43 1017.96 1017.62 1018.29 1018.68 1019.66 1019.66 1019.37
1002.83 1002.30 1001.94 1002.53 1003.09 1003.20 1003.68 1003.96 1003.99 1004.07 1005.23 1005.87 1006.60 1007.26 1008.01 1008.72 1009.33 1009.82 1010.50 1011.08 1011.86 1012.38 1012.84 1013.56 1014.56 1015.09 1016.18 1016.10 1016.35 1016.34 1016.22 1016.32 1016.33 1016.48 1017.14 1017.40 1017.46 1017.90 1017.55 1017.76 1018.05 1018.28 1017.92 1018.26 1018.38 1019.12 1019.50 1019.18 1019.09
1001.77 1001.75 1000.98 1001.97 1002.57 1003.09 1003.39 1002.44 1003.31 1004.10 1004.93 1005.39 1006.14 1006.69 1007.35 1007.97 1008.59 1009.32 1010.01 1010.61 1011.25 1011.85 1012.49 1013.38 1013.86 1014.31 1015.29 1015.58 1015.94 1015.85 1015.90 1016.01 1016.16 1016.32 1016.44 1017.01 1017.25 1017.35 1017.30 1017.50 1017.83 1018.06 1017.94 1017.90 1018.01 1018.65 1018.97 1018.24 1018.22
1001.05 1000.49 1000.55 1001.02 1001.94 1002.20 1002.59 1001.99 1003.22 1003.75 1004.20 1004.65 1005.39 1005.96 1006.70 1007.39 1008.14 1008.84 1009.41 1010.15 1010.61 1011.57 1012.29 1012.99 1013.58 1013.86 1014.49 1015.30 1015.58 1015.83 1015.96 1016.13 1015.99 1016.09 1016.10 1016.49 1016.71 1016.92 1017.13 1017.47 1017.73 1017.83 1017.52 1017.96 1018.31 1018.26 1018.05 1017.90 1017.95
1001.01 1000.67 1000.52 1000.33 1000.75 1001.35 1001.23 1001.20 1001.66 1002.92 1003.16 1003.68 1004.43 1005.24 1006.06 1006.59 1007.15 1008.08 1008.99 1009.67 1010.28 1010.98 1011.95 1012.80 1013.21 1013.79 1014.53 1015.04 1015.56 1015.51 1015.51 1015.72 1015.75 1015.82 1015.88 1016.29 1016.69 1016.80 1017.07 1017.33 1017.21 1017.38 1017.29 1017.46 1017.71 1017.90 1018.09 1017.96 1017.89
1001.40 1000.80 1000.13 999.99 1000.52 1000.68 1000.25 1000.37 1000.51 1001.64 1002.43 1002.81 1003.57 1004.45 1005.19 1005.82 1006.68 1007.56 1008.44 1009.21 1009.92 1010.59 1011.39 1012.22 1012.94 1013.61 1014.36 1014.74 1014.87 1014.93 1014.98 1015.31 1015.39 1015.48 1015.98 1016.32 1016.48 1016.89 1016.94 1017.00 1017.04 1017.22 1017.13 1017.27 1017.99 1018.09 1018.23 1017.66 1017.84
1001.22 1000.62 999.80 999.85 1000.13 1000.47 999.65 999.56 999.38 1000.13 1001.67 1002.19 1002.84 1003.56 1004.38 1005.16 1005.97 1006.97 1007.83 1008.37 1009.20 1010.01 1010.87 1011.71 1012.50 1013.25 1013.91 1013.93 1014.26 1014.41 1014.61 1014.62 1014.81 1015.32 1015.76 1016.19 1016.35 1016.54 1016.70 1016.58 1016.75 1017.01 1017.01 1017.59 1017.85 1017.87 1017.32 1017.20 1017.53
1000.70 999.99 999.96 999.99 999.84 999.48 999.47 998.34 999.02 1000.04 1001.04 1001.66 1002.45 1002.89 1003.55 1004.28 1004.99 1006.19 1006.99 1007.66 1008.39 1009.32 1010.22 1011.00 1011.89 1012.57 1013.29 1013.50 1014.00 1014.46 1014.73 1014.85 1014.86 1015.24 1015.94 1015.81 1016.19 1016.39 1016.80 1016.65 1016.55 1017.06 1016.93 1017.16 1017.57 1017.64 1017.49 1016.77 1017.31
1000.22 999.94 1000.20 1000.04 999.57 998.70 999.88 998.54 998.05 999.66 1000.36 1001.33 1001.74 1002.34 1002.65 1003.46 1004.37 1005.12 1006.15 1006.93 1007.54 1008.42 1009.61 1010.36 1011.31 1012.06 1012.67 1013.34 1013.38 1013.83 1013.88 1013.81 1013.95 1015.00 1015.03 1015.64 1015.92 1016.00 1016.31 1016.63 1016.69 1016.86 1016.63 1016.74 1017.18 1017.34 1017.55 1017.44 1016.78
1000.41 1000.70 1000.47 1000.20 999.55 998.90 998.83 998.57 997.37 998.46 999.59 1000.07 1000.36 1001.27 1001.90 1002.55 1003.54 1004.10 1004.98 1005.85 1006.62 1007.62 1008.58 1009.62 1010.64 1011.48 1012.01 1012.80 1013.10 1013.43 1013.69 1013.29 1013.50 1013.87 1014.73 1015.50 1015.73 1015.71 1015.83 1016.11 1016.48 1016.67 1016.62 1016.84 1017.06 1017.03 1017.40 1017.23 1016.85
1001.20 1000.93 1000.54 1000.08 999.48 998.51 997.92 998.38 997.32 997.94 999.38 999.68 999.99 1000.30 1000.89 1001.39 1002.69 1003.35 1004.23 1005.05 1005.84 1006.75 1007.77 1008.81 1009.86 1010.74 1011.54 1012.13 1012.77 1012.96 1013.02 1013.22 1013.10 1013.67 1014.34 1014.50 1015.14 1015.44 1015.46 1015.57 1016.04 1016.19 1016.36 1016.64 1016.87 1017.02 1017.20 1017.31 1017.25
1000.88 999.87 999.10 998.79 998.30 997.56 997.85 998.11 997.47 998.06 999.12 999.44 999.73 999.82 999.96 1000.68 1001.55 1002.65 1003.28 1004.02 1005.12 1005.81 1006.78 1007.79 1008.98 1010.01 1010.85 1011.48 1012.04 1012.48 1012.80 1013.05 1013.12 1013.40 1013.52 1013.61 1014.07 1014.41 1014.68 1015.34 1015.75 1015.82 1016.16 1016.27 1016.46 1016.97 1017.08 1017.43 1017.50
1000.66 1000.22 999.28 998.47 998.08 997.57 998.16 997.93 997.48 998.84 999.09 999.57 999.68 999.43 999.55 1000.09 1000.74 1001.95 1002.68 1003.54 1004.24 1005.04 1005.98 1007.02 1008.07 1009.14 1010.05 1010.73 1011.24 1011.82 1012.32 1012.47 1012.72 1013.05 1012.84 1013.19 1013.36 1013.70 1014.19 1014.83 1014.91 1015.31 1015.70 1016.16 1016.50 1016.78 1017.10 1017.32 1017.65
1000.66 1000.52 1000.44 999.65 998.95 998.86 998.07 997.99 998.05 998.67 999.31 999.84 999.91 999.77 999.88 1000.17 1000.55 1001.35 1002.09 1002.87 1003.60 1004.45 1005.11 1006.12 1007.34 1008.39 1009.15 1009.69 1010.48 1010.95 1011.50 1011.84 1011.73 1012.10 1012.80 1012.87 1013.14 1013.16 1013.99 1014.51 1014.82 1015.11 1015.38 1015.80 1016.33 1016.61 1016.96 1017.27 1017.65
1001.72 1001.48 1000.49 999.68 999.05 998.53 997.85 998.41 998.16 999.25 999.92 1000.14 1000.26 1000.55 1000.54 1000.49 1000.69 1000.99 1001.57 1002.38 1003.19 1003.86 1004.79 1005.78 1006.69 1007.43 1008.08 1008.62 1009.38 1009.84 1010.40 1011.11 1011.45 1011.80 1012.21 1012.38 1012.72 1013.25 1013.60 1014.19 1014.58 1014.97 1015.33 1015.74 1016.12 1016.23 1016.88 1017.39 1017.55
1001.67 1001.11 1000.82 1000.49 999.92 998.84 998.27 998.14 999.38 1000.36 1000.86 1000.91 1000.91 1001.12 1001.25 1001.07 1000.82 1000.95 1001.28 1002.00 1002.91 1003.63 1004.50 1005.47 1006.45 1007.19 1007.73 1008.09 1008.40 1008.97 1009.40 1010.03 1010.85 1011.10 1011.56 1011.99 1012.40 1012.85 1013.18 1013.69 1014.08 1014.53 1014.97 1015.39 1015.86 1016.12 1016.37 1017.23 1017.44
1002.69 1001.93 1001.52 1000.38 999.70 999.64 999.61 999.28 1000.62 1001.14 1001.35 1001.74 1001.68 1001.78 1002.04 1001.94 1001.04 1000.83 1001.09 1001.72 1002.50 1003.64 1004.17 1004.74 1005.60 1006.24 1006.67 1007.17 1007.79 1008.22 1008.90 1009.40 1009.93 1010.49 1010.95 1011.56 1011.90 1012.42 1012.82 1013.09 1013.43 1013.79 1014.33 1014.81 1015.27 1015.74 1015.93 1016.75 1017.02
Wind_Speed
12 11 4 5 6 3 10 7 7 11 6 6 10 5 7 9 6 5 10 8 10 14 15 13 12 15 16 16 16 16 16 15 14 13 12 10 8 8 8 8 6 7 6 6 7 9 11 14 14
8 5 3 4 4 9 9 6 9 10 15 16 12 8 6 6 5 8 9 7 15 12 14 15 11 13 15 15 15 15 15 14 12 11 11 9 8 6 7 6 5 6 7 7 9 9 10 12 13
4 3 5 4 9 11 9 7 11 13 12 8 5 6 2 3 4 7 12 13 15 13 12 16 13 14 15 14 13 12 12 12 10 9 8 8 7 7 6 5 5 6 8 7 8 10 10 10 11
5 5 6 3 13 9 11 8 11 11 14 9 7 7 3 3 3 3 13 12 14 14 13 15 13 14 14 14 13 12 12 11 10 9 7 6 6 6 5 5 6 6 8 6 7 9 10 10 10
4 5 4 10 12 9 9 8 9 11 9 15 9 6 5 6 2 9 10 12 14 13 14 15 12 12 13 13 13 12 11 10 10 8 6 6 6 6 4 6 7 7 9 7 9 9 10 10 9
5 4 7 11 11 7 8 8 8 6 10 13 10 13 7 10 12 9 9 11 10 12 14 15 13 12 12 13 13 12 11 10 9 8 6 5 5 6 5 4 6 9 8 9 9 8 8 8 8
6 5 8 10 10 6 7 6 4 7 8 11 15 12 14 19 15 11 10 9 12 12 11 13 14 12 10 9 9 8 9 9 7 7 6 6 5 5 5 6 6 7 8 9 8 7 6 6 5
5 6 4 5 7 8 9 7 8 7 7 14 11 9 22 17 16 13 8 11 9 7 11 10 11 11 11 11 10 10 9 7 7 8 8 6 4 5 7 6 7 7 7 9 8 7 6 5 4
4 6 8 7 5 8 11 9 6 7 14 8 6 13 26 22 19 15 12 12 10 12 13 13 13 14 8 9 10 9 7 7 7 8 7 7 5 5 10 7 8 7 7 8 8 7 6 6 6
7 5 8 6 4 8 13 9 13 10 14 10 13 20 27 24 22 18 16 15 15 14 13 12 13 10 11 7 8 7 7 8 6 6 5 4 5 5 3 5 6 6 7 8 8 7 6 12 7
3 6 4 4 4 8 12 8 10 15 12 15 21 25 27 25 23 21 18 16 15 15 12 11 8 11 10 6 6 5 6 5 6 5 5 5 4 6 7 7 4 6 6 6 10 7 6 7 3
4 2 1 2 3 9 12 11 10 13 11 16 22 27 28 27 24 22 20 17 16 16 14 12 12 8 8 5 5 5 4 5 4 6 6 4 5 4 2 3 5 5 6 7 6 6 5 4 5
4 3 3 3 5 6 10 12 9 12 10 19 23 26 27 25 23 21 19 18 16 17 15 14 13 12 8 8 7 6 5 5 5 5 7 5 5 3 5 4 3 2 5 7 5 5 4 4 3
7 8 7 1 5 6 9 9 7 15 12 20 24 27 26 26 24 20 19 17 17 16 17 16 14 12 12 10 8 6 5 5 5 5 5 6 5 3 3 5 5 3 6 6 6 4 4 3 4
6 8 1 2 5 5 7 7 11 10 17 20 23 23 24 24 23 22 19 18 17 16 16 17 16 16 12 11 10 7 6 6 6 5 6 6 6 5 6 4 5 5 5 5 5 6 4 5 6
5 7 5 5 6 5 7 7 12 9 18 19 21 20 22 24 25 21 20 18 18 15 15 15 14 16 15 12 9 8 7 6 5 5 6 8 8 7 7 3 5 6 6 7 7 8 5 6 6
3 8 10 7 3 4 8 3 6 11 17 18 18 20 20 21 22 21 21 19 17 16 15 15 15 15 14 11 9 8 7 6 5 5 5 7 7 7 6 3 5 7 6 6 7 7 6 5 4
10 10 12 10 3 7 7 7 12 12 16 17 17 18 19 20 24 22 21 19 18 18 15 14 13 13 12 9 8 8 7 7 6 6 5 5 4 6 5 5 6 7 6 6 5 3 4 4 2
10 12 14 11 9 5 7 8 6 14 14 16 16 17 19 20 20 21 21 20 19 17 17 17 14 14 11 10 10 9 9 7 7 7 6 6 5 5 6 5 6 7 6 5 6 6 6 6 4
12 14 13 8 8 7 7 12 8 9 13 14 16 17 18 18 19 20 21 21 20 19 18 17 16 15 13 10 8 8 7 7 7 5 7 8 7 7 5 4 6 8 7 6 7 7 5 5 4
16 14 12 14 14 4 10 9 6 8 7 10 14 15 18 19 20 21 22 22 20 19 19 18 17 16 15 14 9 7 5 5 6 6 4 9 9 7 8 7 6 8 7 8 8 7 6 5 4
16 15 8 12 12 7 5 7 3 7 7 7 11 16 17 20 20 21 22 22 22 21 18 18 17 17 14 14 11 12 10 9 8 6 8 6 8 8 8 8 8 8 7 6 7 6 5 6 5
14 6 7 9 14 9 13 8 4 10 6 6 3 14 18 20 21 21 23 23 23 21 19 17 17 16 15 15 14 12 13 9 7 7 7 9 10 10 11 10 9 8 7 7 6 7 7 6 7
4 8 8 8 10 11 1 6 11 8 7 6 6 5 17 21 22 21 21 22 21 20 19 18 18 17 16 16 17 16 14 12 8 8 8 8 8 10 11 11 10 9 8 6 7 7 8 8 5
9 14 8 9 11 11 7 8 11 9 11 10 10 8 13 20 22 22 21 21 19 20 20 17 18 17 17 17 16 17 16 14 12 10 9 9 9 10 11 12 11 9 9 8 7 7 7 7 7
7 11 10 8 9 10 4 7 4 6 8 10 6 5 9 19 20 22 22 20 21 20 19 18 17 16 17 17 17 15 15 11 11 12 9 9 9 10 10 12 11 11 10 9 8 7 7 7 7
5 9 9 12 10 11 14 2 10 4 10 10 10 6 4 15 17 21 21 21 20 20 20 19 16 16 17 18 15 16 15 15 13 12 12 9 9 7 10 12 12 12 10 10 9 8 7 6 7
8 7 9 9 10 11 7 3 6 11 12 11 11 7 5 5 13 15 17 18 17 18 18 18 18 18 17 17 16 15 16 15 14 13 13 12 10 10 11 12 12 12 11 10 10 8 8 7 6
6 10 7 8 7 11 9 2 10 7 8 11 10 9 5 3 7 11 13 14 15 15 15 15 15 16 15 16 16 15 16 16 15 14 14 14 13 13 13 13 13 13 13 12 11 10 7 9 7
6 6 11 8 8 7 9 5 7 6 7 8 9 8 6 7 4 6 11 12 13 12 13 14 14 15 15 14 14 16 15 14 15 15 15 15 14 14 14 14 15 15 14 13 13 13 10 11 10
Wind_Direction
170 182 186 224 229 209 50 81 73 122 85 108 132 65 68 14 11 62 134 105 152 165 131 148 136 131 124 125 128 131 133 128 127 126 119 113 111 110 100 89 80 79 68 73 99 95 103 99 99
181 176 244 272 287 55 57 62 102 92 111 99 87 106 46 58 36 114 129 171 171 151 141 142 138 136 130 132 131 133 133 127 127 124 122 118 112 102 96 92 82 78 79 90 103 102 107 106 102
161 270 259 255 39 49 65 65 100 123 148 120 94 44 68 64 117 125 133 182 161 140 147 121 143 141 140 137 135 135 132 131 129 129 124 125 123 107 95 92 90 84 93 99 105 103 103 104 103
177 209 230 62 74 64 78 99 116 132 117 117 145 94 112 28 119 225 134 154 154 155 156 134 149 145 145 142 140 140 140 140 141 141 142 138 132 114 103 97 96 98 104 114 109 99 98 97 97
220 247 149 80 80 87 87 100 130 142 134 149 154 113 104 119 179 138 141 183 150 158 136 151 156 153 154 151 149 149 148 151 152 147 144 162 153 123 109 111 104 106 118 127 118 103 100 101 102
231 265 80 77 94 104 109 126 121 112 134 118 120 132 140 142 152 163 169 164 163 151 156 138 155 162 165 163 162 160 159 166 168 157 162 179 166 141 136 122 117 118 121 129 117 109 102 100 95
297 284 57 86 104 125 126 146 129 123 146 158 151 136 130 161 166 165 166 163 171 161 147 157 163 160 166 155 153 158 168 166 173 169 183 167 159 153 160 149 133 132 132 129 123 119 110 105 99
276 264 141 46 72 99 134 151 115 122 120 130 151 156 158 162 167 161 160 185 159 161 162 179 157 165 178 155 166 174 177 167 176 160 180 183 182 182 172 162 152 143 138 133 132 132 133 126 110
241 251 56 63 37 122 154 137 104 103 137 155 205 143 154 161 156 169 172 174 177 191 187 175 168 171 162 179 167 175 172 178 178 172 183 192 213 161 177 100 133 134 142 149 143 145 150 154 124
264 344 33 14 78 136 169 151 137 147 146 135 133 131 140 159 166 175 179 176 184 185 192 178 181 163 167 179 154 178 173 185 184 172 164 178 204 168 235 143 168 157 159 144 146 153 183 218 145
10 8 24 48 28 142 163 158 159 155 163 154 151 145 155 169 176 182 184 183 185 183 190 177 171 172 182 181 189 186 180 167 161 174 171 195 190 172 210 133 161 158 190 164 183 155 264 112 204
276 4 315 58 132 158 167 160 180 181 157 151 158 156 164 175 181 185 183 188 186 184 188 180 170 198 200 161 199 183 186 190 187 165 193 185 215 190 135 203 148 157 184 185 209 164 193 168 151
306 346 264 121 171 192 177 182 173 191 155 149 159 164 173 179 184 190 188 184 187 185 185 184 183 187 188 192 204 207 202 197 177 180 178 213 223 177 201 221 167 185 189 172 175 166 182 169 170
337 309 307 169 191 166 194 194 201 195 165 159 167 175 180 186 186 186 191 190 188 191 187 186 193 179 199 203 196 197 203 186 206 191 181 209 251 216 219 207 188 170 202 166 155 184 134 209 269
303 305 141 174 171 172 200 196 211 181 176 173 178 181 186 191 189 191 193 192 190 191 185 189 190 189 194 200 197 204 193 204 199 205 195 213 224 222 256 237 164 184 174 179 170 158 184 211 214
291 225 49 109 178 121 222 31 183 171 179 186 186 186 189 191 194 193 191 193 187 196 189 196 194 189 185 196 195 205 194 209 200 210 206 219 223 232 240 233 168 178 173 192 172 198 196 205 198
184 347 17 85 182 152 223 16 152 180 189 195 194 191 195 193 197 194 193 195 189 192 188 195 192 196 188 192 202 213 188 215 208 213 234 213 219 226 250 230 180 184 180 163 191 196 217 165 215
327 340 334 353 76 238 253 278 153 191 194 205 195 192 196 198 197 190 198 193 195 186 189 196 188 198 189 184 202 207 198 211 216 217 227 213 235 212 219 237 173 196 179 185 191 212 182 247 213
303 302 310 3 12 277 262 285 278 181 203 192 196 195 194 202 193 190 193 192 195 194 190 188 198 191 186 195 199 204 211 209 220 221 215 219 218 213 212 224 180 207 200 202 183 191 199 204 174
280 287 296 326 33 297 315 295 278 187 202 203 195 193 198 194 187 193 193 193 197 195 194 195 200 195 200 201 210 222 219 217 219 183 210 214 212 210 224 217 191 197 185 193 192 212 201 222 165
268 275 310 323 322 226 312 251 132 114 179 199 206 203 195 193 190 189 193 197 193 196 197 196 198 200 204 216 200 201 219 225 204 194 203 211 206 213 213 208 222 182 216 183 196 192 222 199 176
273 284 310 300 304 355 44 300 156 117 120 187 207 211 200 195 198 187 191 194 197 194 198 200 199 202 200 207 205 207 213 216 210 186 217 192 214 209 203 203 203 202 208 194 189 187 224 266 205
290 350 286 292 283 294 175 253 126 116 46 21 182 207 214 193 197 193 193 192 198 195 192 199 200 203 209 196 220 207 225 218 206 203 197 193 205 215 208 204 200 197 218 189 207 203 216 190 269
300 252 231 242 270 273 246 288 295 55 7 344 345 244 205 198 195 200 194 192 196 196 195 194 197 203 202 200 205 214 216 230 216 204 181 191 186 205 213 206 206 207 218 206 211 217 212 242 229
220 246 254 224 221 248 100 293 302 50 3 350 328 289 208 200 187 198 194 192 196 201 196 196 195 203 202 203 206 212 216 215 213 206 211 196 200 204 197 201 210 201 214 213 216 203 223 217 230
351 326 297 285 268 285 113 267 48 24 17 6 356 333 195 193 188 194 195 197 192 198 201 201 194 199 201 204 207 209 212 215 214 206 220 210 207 204 194 199 203 207 202 210 203 214 223 207 224
16 264 2 294 250 263 276 138 256 61 31 22 26 37 166 187 192 194 196 199 197 196 196 196 197 196 199 201 204 205 205 217 209 213 208 211 218 201 194 199 203 203 202 205 200 233 210 204 221
289 349 257 214 267 266 245 271 282 19 5 10 21 18 28 178 197 195 198 198 203 202 201 198 198 200 199 200 200 202 199 207 214 203 207 213 205 217 188 201 204 206 205 205 207 215 203 211 216
265 237 213 293 294 297 270 218 55 22 0 355 7 19 353 302 212 206 196 198 201 206 205 202 202 202 204 205 200 203 200 200 207 209 206 210 204 200 200 201 204 207 208 206 208 232 217 213 214
296 324 272 283 233 238 304 325 63 28 10 355 3 15 12 323 254 207 192 190 192 199 210 201 200 205 203 204 205 202 204 205 202 212 211 210 211 203 206 202 205 206 210 209 210 216 215 215 215